Holbrook, NY

1:07 AM EST on February 10, 2016 (GMT -0500)
Long Island Mac Arthur

Weather History for KISP - August, 2014

Change the Weather History Date:

Saturday, August 16, 2014

  Actual Average Record
Temperature  
Mean Temperature 68 °F 73 °F  
Max Temperature 78 °F 81 °F 90 °F (2001)
Min Temperature 58 °F 66 °F 54 °F (1994)
Degree Days  
Heating Degree Days 0 0  
Month to date heating degree days 0 0  
Since 1 June heating degree days 2 40  
Since 1 July heating degree days 0 2  
Cooling Degree Days 3 8  
Month to date cooling degree days 127 140  
Year to date cooling degree days 651 580  
Since 1 June cooling degree days 622 556  
Growing Degree Days 18 (Base 50)    
Moisture  
Dew Point 56 °F    
Average Humidity 62    
Maximum Humidity 84    
Minimum Humidity 40    
Precipitation  
Precipitation 0.00 in 0.14 in 2.40 in (1992)
Month to date precipitation 14.03 2.08  
Year to date precipitation 40.52 29.24  
Snow  
Snow 0.00 in 0.00 in - ()
Month to date snowfall 0.0 0.0  
Since 1 July snowfall 0.0 0.0  
Snow Depth 0.00 in    
Sea Level Pressure  
Sea Level Pressure 29.96 in    
Wind  
Wind Speed 7 mph (SW)    
Max Wind Speed 18 mph    
Max Gust Speed 23 mph    
Visibility 10 miles    
Events      
T = Trace of Precipitation, MM = Missing Value Source: NWS Daily Summary

Daily Weather History Graph

Daily Weather History Graph

Search for Another Location

Airport or City:

Trip Planner

Search our weather history database for the weather conditions in past years. The results will help you decide how hot, cold, wet, or windy it might be!

Date:

Astronomy

Aug. 16, 2014 Rise Set
Actual Time 6:03 AM EDT 7:49 PM EDT
Civil Twilight 5:34 AM EDT 8:18 PM EDT
Nautical Twilight 4:58 AM EDT 8:53 PM EDT
Astronomical Twilight 4:20 AM EDT 9:31 PM EDT
Moon 11:27 PM EDT (8/16) 12:49 PM EDT (8/16)
Length of Visible Light 14h 44m
Length of Day
13h 45m
Waning Gibbous, 59% of the Moon is Illuminated
Aug 16
Waning Gibbous
Aug 17
Last Quarter
Aug 25
New
Sep 2
First Quarter
Sep 8
Full

Hourly Weather History & Observations

Time (EDT) Temp. Dew Point Humidity Pressure Visibility Wind Dir Wind Speed Gust Speed Precip Events Conditions
12:56 AM 64.9 °F 54.0 °F 68% 29.96 in 10.0 mi Calm Calm - N/A   Overcast
1:56 AM 64.9 °F 54.0 °F 68% 29.96 in 10.0 mi WSW 3.5 mph - N/A   Overcast
2:56 AM 64.9 °F 54.0 °F 68% 29.96 in 10.0 mi SW 4.6 mph - N/A   Overcast
3:56 AM 63.0 °F 53.1 °F 70% 29.97 in 10.0 mi WSW 4.6 mph - N/A   Partly Cloudy
4:56 AM 61.0 °F 52.0 °F 72% 29.97 in 10.0 mi WSW 3.5 mph - N/A   Clear
5:56 AM 59.0 °F 52.0 °F 78% 29.98 in 10.0 mi Calm Calm - N/A   Scattered Clouds
6:56 AM 62.1 °F 55.0 °F 78% 29.99 in 10.0 mi Calm Calm - N/A   Mostly Cloudy
7:56 AM 64.9 °F 55.0 °F 70% 29.99 in 10.0 mi WSW 4.6 mph - N/A   Mostly Cloudy
8:56 AM 70.0 °F 55.0 °F 59% 29.99 in 10.0 mi West 6.9 mph - N/A   Mostly Cloudy
9:56 AM 73.0 °F 53.1 °F 49% 30.00 in 10.0 mi WSW 9.2 mph - N/A   Overcast
10:56 AM 73.0 °F 52.0 °F 48% 30.00 in 10.0 mi SSW 11.5 mph - N/A   Overcast
11:56 AM 75.9 °F 53.1 °F 45% 30.00 in 10.0 mi SW 11.5 mph 17.3 mph N/A   Overcast
12:56 PM 77.0 °F 51.1 °F 40% 29.99 in 10.0 mi SSW 16.1 mph 21.9 mph N/A   Mostly Cloudy
1:56 PM 75.9 °F 51.1 °F 42% 29.98 in 10.0 mi SSW 16.1 mph 21.9 mph N/A   Mostly Cloudy
2:56 PM 75.0 °F 53.1 °F 46% 29.97 in 10.0 mi SSW 12.7 mph - N/A   Mostly Cloudy
3:56 PM 75.0 °F 55.0 °F 50% 29.96 in 10.0 mi SW 10.4 mph 17.3 mph N/A   Mostly Cloudy
4:56 PM 73.9 °F 57.9 °F 57% 29.95 in 10.0 mi SW 11.5 mph - N/A   Mostly Cloudy
5:56 PM 73.9 °F 60.1 °F 62% 29.94 in 10.0 mi SSW 9.2 mph - N/A   Mostly Cloudy
6:56 PM 72.0 °F 59.0 °F 64% 29.92 in 10.0 mi South 9.2 mph - N/A   Mostly Cloudy
7:56 PM 71.1 °F 57.9 °F 63% 29.93 in 10.0 mi South 5.8 mph - N/A   Mostly Cloudy
8:56 PM 71.1 °F 59.0 °F 66% 29.93 in 10.0 mi South 5.8 mph - N/A   Mostly Cloudy
9:56 PM 70.0 °F 61.0 °F 73% 29.92 in 10.0 mi South 5.8 mph - N/A   Mostly Cloudy
10:56 PM 70.0 °F 64.0 °F 81% 29.91 in 10.0 mi SW 5.8 mph - N/A   Mostly Cloudy
11:56 PM 69.1 °F 64.0 °F 84% 29.91 in 10.0 mi Calm Calm - N/A   Mostly Cloudy